Location: Al Qbab
(32.7412°N, 5.5203°W)
Time: 21:50:32
(UTC+00:00)

Daily predictions for brighter satellites

Satellite Brightness Start Highest point End
(mag) Time Altitude Azimuth Time Altitude Azimuth Time Altitude Azimuth
Cosmos 1867 3.7 17:38:51 10° SSW 17:44:17 84° WNW 17:49:47 10° NNE
Cosmos 2344 4.4 17:37:04 10° SW 17:44:28 51° NW 17:52:01 10° NNE
Okean O Rocket 3.6 17:41:28 10° SSW 17:45:32 36° W 17:49:36 10° NNW
Cosmos 2123 Rocket 4.4 17:43:23 10° SSW 17:49:36 73° W 17:55:48 10° N
SeaSat 1 2.9 17:45:57 10° SE 17:50:29 39° ENE 17:55:02 10° N
PSLV R/B 3.8 17:50:14 10° W 17:52:34 32° NNW 17:54:55 10° NE
Cosmos 1743 Rocket 3.6 17:51:49 10° N 17:56:05 53° E 18:00:20 10° SSE
Meteor 1-27 4.2 17:57:01 10° S 18:02:36 82° E 18:08:17 10° N
Cosmos 1356 Rocket 4.3 17:59:17 10° SSE 18:02:47 28° E 18:06:20 10° NNE
Lacrosse 4 Rocket 3.2 18:00:56 10° SE 18:02:58 13° ESE 18:04:26 12° E
Feng Yun 1-1 Rocket 4.4 17:57:37 10° SSE 18:03:22 83° WSW 18:08:58 10° NNW
Cosmos 2227 Rocket 3.7 18:00:37 10° NNE 18:03:45 15° ENE 18:06:30 11° E
Cosmos 2297 Rocket 3.6 18:01:10 10° NNE 18:04:40 16° ENE 18:08:06 10° E
Cosmos 1725 Rocket 4.3 17:58:59 10° N 18:05:19 78° W 18:11:36 10° S
H-2A R/B 2.8 18:02:13 10° SSE 18:06:06 88° WSW 18:09:59 10° NNW
CORIOLIS 4.2 18:04:46 10° SSE 18:10:09 88° E 18:15:35 10° NNW
Cosmos 1437 2.9 18:08:49 10° NNW 18:11:53 70° W 18:14:55 10° S
Centaur D-1A AC-31 2.8 18:10:54 10° SSW 18:13:01 16° SSE 18:15:32 10° ESE
Cosmos 773 Rocket 3.9 18:09:05 10° SSW 18:14:13 87° ESE 18:19:24 10° NNE
Cosmos 1538 Rocket 3.9 18:16:12 10° S 18:21:23 75° ESE 18:26:40 10° NNE
Meteor 2-20 4.4 18:15:57 10° S 18:22:02 79° E 18:28:10 10° N
Cosmos 1500 Rocket 3.6 18:17:49 10° N 18:22:11 80° W 18:26:31 10° S
Meteor 2-3 Rocket 3.8 18:17:11 10° N 18:23:00 85° W 18:28:45 10° S
YAOGAN 6 2.9 18:20:59 10° SE 18:24:16 38° ENE 18:27:32 10° N
Genesis I 4.5 18:21:41 10° SW 18:25:29 41° WNW 18:29:18 10° NNE
ERBS 3.1 18:23:08 10° S 18:26:07 32° ESE 18:27:08 26° E
Starlink Launch 2 Placeholder 2.1 18:25:20 10° NW 18:27:47 87° SW 18:29:08 23° SE
Cosmos 1818 4.0 18:23:58 10° NW 18:29:21 65° WSW 18:34:41 10° SSE
COSMO-SKYMED 1 2.6 18:26:16 10° N 18:30:37 85° WNW 18:34:56 10° SSW
CZ-4 R/B 1.7 18:26:43 10° SSE 18:30:45 46° ENE 18:34:44 10° N
Cosmos 1666 Rocket 4.3 18:33:30 10° NNE 18:37:17 28° ENE 18:37:20 28° E
Cosmos 1697 Rocket 3.1 18:33:18 10° S 18:38:30 39° ESE 18:41:38 22° NE
Cosmos 1328 Rocket 4.4 18:36:05 10° SSE 18:39:54 29° E 18:39:54 29° E
Okean-O 3.8 18:42:15 10° S 18:46:29 44° W 18:50:44 10° NNW
Cosmos 2034 Rocket 4.4 18:42:46 10° NNE 18:48:36 37° E 18:54:24 10° SE
Sich 1 3.0 18:44:34 10° N 18:48:50 56° E 18:53:06 10° SSE
Cosmos 1869 4.3 18:45:52 10° SSW 18:49:41 47° W 18:53:31 10° N
YAOGAN 1 2.4 18:50:28 10° SSE 18:54:44 69° ENE 18:59:03 10° N
Cosmos 1151 Rocket 3.8 18:51:05 10° SSE 18:54:02 33° SE 18:54:02 33° SE
Envisat 3.7 18:50:57 10° S 18:55:54 55° W 19:00:54 10° NNW
Tsikada Rocket 4.3 18:52:49 10° SSE 18:58:41 43° E 19:03:19 16° NNE
ATLAS 5 CENTAUR R/B 3.1 18:53:17 10° N 18:58:45 34° NE 18:59:13 34° ENE
USA 40 PKM 4.0 18:54:45 10° NW 18:58:55 78° NE 18:59:26 61° ESE
IUS-18 SRM-1 3.3 18:59:25 10° W 19:04:36 31° SSW 19:05:14 28° S
USA 215 4.1 19:05:50 28° NE 19:06:25 29° NNE 19:11:51 10° NNW
NOAA 11 4.1 19:01:12 10° SSE 19:06:30 57° ENE 19:11:47 10° N
NOSS 2-3 (E) 3.3 19:08:18 10° SSW 19:12:30 79° ESE 19:12:39 78° E
Cosmos 1816 Rocket 4.4 19:07:03 10° S 19:13:13 62° E 19:19:29 10° NNE
CSL-04 Debris 4.3 19:09:24 10° S 19:14:53 76° WSW 19:20:24 10° NNW
NOSS 3-1 (A) 3.6 19:14:03 10° SW 19:19:19 61° WNW 19:22:28 27° NNE
Cosmos 2112 Rocket 3.8 19:14:30 10° S 19:19:36 70° ESE 19:19:36 70° ESE
NOSS 2-3 (D) 3.5 19:17:31 10° SSW 19:21:25 76° SSW 19:21:25 76° SSW
Cosmos 2219 3.5 19:17:25 10° NNW 19:22:58 64° WSW 19:28:30 10° S
Meteor 2-11 Rocket 4.3 19:17:48 10° N 19:23:55 70° E 19:30:01 10° SSE
Cosmos 1680 Rocket 3.5 19:23:05 10° SSW 19:28:17 80° WNW 19:29:11 61° N
Cosmos 1980 Rocket 2.7 19:34:58 10° SSW 19:38:59 48° S 19:38:59 48° S
Lacrosse 4 Rocket 2.8 19:37:29 10° SW 19:40:48 35° WNW 19:40:48 35° WNW
Cosmos 2227 Rocket 2.4 19:42:40 10° NNW 19:48:16 66° WSW 19:48:28 66° WSW
Cosmos 2297 Rocket 2.6 19:43:32 10° NNW 19:49:05 59° WSW 19:50:04 51° SSW
ATLAS 5 CENTAUR R/B 4.2 20:37:43 10° NW 20:40:50 28° WNW 20:40:50 28° WNW
ATLAS 5 CENTAUR R/B 4.2 20:59:19 10° WSW 21:52:35 10° ESE 21:53:32 10° ESE
